Regional Weather Roundup
Issued by NWS Newport/Morehead, NC

Home | Current Version | Previous Version | Text Only | Print | Product List | Glossary On
Versions: 1 2 3 4 5 6 7 8 9 10 11 12 13 14 15 16 17 18 19 20 21 22 23 24 25 26 27 28 29 30 31 32 33 34 35 36 37 38 39 40 41 42 43 44 45 46 47 48 49 50
000
ASUS42 KMHX 261825
RWRMHX
WEATHER ROUNDUP FOR EASTERN NORTH CAROLINA
NATIONAL WEATHER SERVICE NEWPORT/MOREHEAD CITY NC
200 PM EDT FRI MAY 26 2017

NOTE: "FAIR" INDICATES FEW OR NO CLOUDS BELOW 12,000 FEET
WITH NO SIGNIFICANT WEATHER AND/OR OBSTRUCTIONS TO VISIBILITY

NCZ015>017-031-032-045>047-102-103-261900-
NORTH COAST

CITY           SKY/WX    TMP DP  RH WIND       PRES   REMARKS
EDENTON        MOSUNNY   79  57  45 NW10G20   29.86S
ELIZABETH CITY MOSUNNY   79  58  48 W17G23    29.83S
KITTY HAWK     CLEAR     77  56  47 W10G20    29.83S
MANTEO         SUNNY     77  56  47 NW10G20   29.85S

$$

NCZ045>047-081-094-103-104-261900-
CENTRAL COAST

CITY           SKY/WX    TMP DP  RH WIND       PRES   REMARKS
FRISCO         SUNNY     80  59  48 W12G18    29.88S

$$

NCZ095-097-098-100-101-261900-
SOUTHERN COAST

CITY           SKY/WX    TMP DP  RH WIND       PRES   REMARKS
BEAUFORT       SUNNY     80  64  58 SW18      29.89S
CEDAR ISLAND   NOT AVBL
JACKSONVILLE   SUNNY     82  56  40 W15G24    29.90S
PINEY ISLAND   CLEAR    N/A N/A N/A W18G25    29.88S
WILMINGTON     SUNNY     82  56  40 W13       29.92S


$$

NCZ011>013-027>030-043-044-078>080-089-090>093-098-261900-
COASTAL PLAIN

CITY           SKY/WX    TMP DP  RH WIND       PRES   REMARKS
AHOSKIE        NOT AVBL
CLINTON        SUNNY     82  55  40 W9G21     29.92F
ELIZABETHTOWN  SUNNY     82  52  35 W12G18    29.93S
GOLDSBORO      MOSUNNY   80  55  41 W10G18    29.89S
GREENVILLE     MOSUNNY   81  55  41 NW8G17    29.91F
HAVELOCK       MOSUNNY   83  55  38 W15G25    29.90S
KENANSVILLE    SUNNY     81  55  41 W13       29.91F
KINSTON        MOSUNNY   81  52  36 W9G24     29.91S
NEW BERN       MOSUNNY   82  57  42 W13G20    29.90F
RICHLANDS      MOSUNNY   82  56  40 W13G22    29.91F
ROCKY MOUNT    MOSUNNY   78  54  43 W15G24    29.89F
WASHINGTON     SUNNY     79  55  44 W13       29.88F
WHITEVILLE     SUNNY     81  55  40 W6        29.93F

$$

AMZ130-135-150-152-154-156-158-170-250-252-270-ANZ085-086-088-633-658-670-261900-
MARINE OBSERVATIONS

STATION/POSITION TIME  TEMP    WIND        PRES    WAVE   SWELL
                       AIR SEA DIR/SP/G            HT/PER HT/PER
                 (UTC) (F)     (DEG/KT/KT) (MB)    (FT/S) (FT/S)
CHESAPEAKE LIGHT NOT AVBL
64 E VA BEACH    1650   64 61  260/ 12/ 12 1009.9    6/ 7   5/ 7
DUCK             1800   76 63  270/ 15/ 20 1009.7
2 E DUCK         1800      62                N/A     2/ 8
OREGON INLET     1800   77 71  280/ 10/ 14 1010.3
13E OREGON INLT  1748      66                N/A     3/ 8   2/ 8
HATTERAS CG      1800   75 71  280/ 17/ 19 1011.4
DIAMOND BUOY     1650   74 79  280/ 19/ 23 1011.8    8/ 8
CAPE LOOKOUT     1800   76     230/ 12/ 16 1012.1
BEAUFORT LAB     1800   77 71  220/  9/ 12 1011.4
30 SE NEW RVR IN 1808   74 78  240/ 14/ 17 1013.6
30 SE NEW RVR IN 1743      76                N/A     5/ 8
27 SE WRIGHTSVLE 1808   73 75  220/ 14/ 19 1013.1
5 SE WRIGHTSVLE  1808   74 74  220/ 16/ 25 1012.9
225 S CAPE HAT   1750   76 77  280/ 12/ 14 1016.0    6/ 8   5/ 8
41 SE CHARLESTON 1810   73 74  240/ 14/ 16 1015.8

$$



USA.gov is the U.S. government's official web portal to all federal, state and local government web resources and services.